Volver al catálogo

HELIOS 1B

ActivoMilitarSSO
NORAD 25977·PAYLOAD·🇫🇷 France

Lanzado Dec 3, 1999 desde Guiana Space Centre

Loading…

Próximos Pases (próximas 24 horas)

TLE

ActualizadoSource: Space-Track

Época: Sep 14, 2026, 04:55 UTC

1 25977U 99064A   26257.20487973  .00000961  00000-0  11052-3 0  9998
2 25977  98.1515 164.8855 0001903 118.7774 241.3633 14.88198979713294

Sigue HELIOS 1B en tiempo real con AllMySat

Download on the App Store